sat.trackr.live / text

‹ back to catalog

STARLINK-32462

NORAD 62129 · 2024-222R

PAYLOAD ACTIVE UNKNOWN

§ Identity

Operator
Country
US
Launch date
2024-11-27
Launch site
AFETR
Launch vehicle
Mass (kg)
RCS (m²)

Purposes: comms

External: N2YO · Heavens-Above · Gunter

§ Orbital elements

Epoch: 2026-09-20T23:22:53.074560Z

Period
94.27 min
Inclination
43.0026°
Eccentricity
0.0001081
Mean motion
15.27584709 rev/d
Perigee alt
482.3 km
Apogee alt
483.8 km
Semi-major
6,861.2 km
B*
3.9821e-4
RAAN
109.9957°
Arg perigee
279.2970°
Mean anomaly
80.7759°
Rev number
10,265

§ Raw data

STARLINK-324621 62129U 24222R   26263.97422540  .00010713  00000+0  39821-3 0  99912 62129  43.0026 109.9957 0001081 279.2970  80.7759 15.27584709102651

JSON: /api/v1/satellites/62129 · /tle

For live sub-satellite position, see the globe view (requires WebGL).

§ Visibility from observer

Set your observer location to see the next 7 days of passes ≥ 10°. The values pass through the URL so the page stays shareable.

No JS? Fill the form by hand. The geolocation button needs JavaScript.